Location: Althorst
(53.6379°N, 10.7715°E)
Time: 22:00:45
(UTC+00:00)

Daily predictions for brighter satellites

Satellite Brightness Start Highest point End
(mag) Time Altitude Azimuth Time Altitude Azimuth Time Altitude Azimuth
Cosmos 2279 Rocket 4.1 15:25:47 10° N 15:32:00 59° ENE 15:38:10 10° SSE
METEOR-M 4.2 15:27:59 10° SSE 15:33:20 89° ENE 15:38:43 10° NNW
ASTEX 1 3.8 15:28:53 10° N 15:33:50 69° W 15:38:43 10° SSW
Cosmos 2360 Rocket 2.3 15:28:17 10° SSW 15:33:58 86° ESE 15:39:42 10° NNE
NOSS 7 (D) 4.1 15:35:03 10° NW 15:37:51 53° NE 15:40:56 10° ESE
USA 215 3.9 15:31:47 10° ENE 15:37:59 43° SE 15:44:10 10° SSW
CZ-4 R/B 3.2 15:38:00 10° ENE 15:38:46 10° NE 15:39:33 10° NE
Cosmos 2369 Rocket 3.7 15:35:04 10° NNW 15:38:52 18° NNE 15:42:38 10° ENE
Cosmos 1634 Rocket 4.1 15:34:25 10° NNW 15:40:37 84° W 15:46:49 10° S
Cosmos 1980 Rocket 3.8 15:36:11 10° W 15:40:53 26° NW 15:45:37 10° NNE
Okean-O 3.7 15:38:24 10° ESE 15:41:54 23° ENE 15:45:24 10° N
SMAP 3.6 15:38:42 10° SE 15:42:59 37° ENE 15:47:16 10° N
Cosmos 1346 Rocket 2.9 15:39:14 10° NNW 15:43:13 87° WSW 15:47:13 10° S
Cosmos 1782 2.8 15:40:51 10° S 15:44:48 68° E 15:48:47 10° NNE
Cosmos 1900 4.3 15:42:25 10° NW 15:47:19 64° NE 15:52:10 10° SE
BREEZE-M R/B 4.2 15:40:26 10° WSW 15:47:40 51° S 15:51:19 10° E
ISS -1.7 15:49:16 10° W 15:52:14 29° SSW 15:55:13 10° SE
Cosmos 304 Rocket 4.2 15:47:31 10° NNW 15:52:19 69° WSW 15:57:06 10° SSE
ALOS 2.7 15:47:44 10° S 15:52:22 68° WSW 15:57:04 10° NNW
NOSS 2-2 (D) 3.9 15:49:20 10° WSW 15:53:04 52° NNW 15:57:38 10° NE
Cosmos 1315 Rocket 2.8 15:49:52 10° S 15:53:50 65° E 15:57:53 10° NNE
Cosmos 2333 Rocket 2.5 15:49:27 10° S 15:55:00 52° ESE 16:00:36 10° NE
Cosmos 2237 Rocket 3.4 15:52:50 10° SSE 15:57:18 24° ESE 16:01:42 10° NE
H-2A R/B 3.9 15:56:43 10° N 16:00:08 26° WNW 16:03:33 10° WSW
Radarsat Rocket 4.1 15:54:27 10° SSE 16:00:32 82° WSW 16:06:23 10° NNW
Cosmos 2322 Rocket 3.2 15:55:21 10° WSW 16:00:41 42° NW 16:06:05 10° NNE
Cosmos 1400 Rocket 3.8 15:56:53 10° SSW 16:00:50 47° WNW 16:04:47 10° N
AQUARIUS 4.4 15:56:53 10° SE 16:01:10 46° ENE 16:05:30 10° N
Cosmos 292 Rocket 4.2 15:58:00 10° NNW 16:02:40 42° NE 16:07:17 10° SE
Meteor 1-10 Rocket 4.4 15:57:37 10° S 16:02:59 52° E 16:08:26 10° NNE
NOSS 3-1 (C) 4.4 15:59:07 10° WNW 16:05:21 40° NNE 16:12:22 11° E
YAOGAN 1 4.0 16:02:43 10° E 16:05:31 17° NE 16:08:18 10° NNE
Envisat 3.5 16:01:19 10° SE 16:05:55 36° ENE 16:10:32 10° N
Cosmos 1812 3.5 16:02:32 10° SSE 16:05:58 31° E 16:09:26 10° NNE
CORIOLIS 4.3 16:00:56 10° SE 16:06:13 53° ENE 16:11:31 10° N
Helios 1A Rocket 3.5 16:02:51 10° S 16:06:55 63° WSW 16:11:00 10° NNW
COSMOS 2455 3.6 16:01:41 10° WSW 16:07:28 46° NW 16:13:17 10° NE
ATLAS 3B R/B 4.5 16:02:51 10° NW 16:08:52 36° WSW 16:15:00 10° S
SL-16 R/B 3.4 16:03:51 10° WSW 16:09:02 36° NW 16:14:16 10° NNE
Cosmos 2219 Rocket 2.3 16:04:04 10° SSW 16:09:35 63° ESE 16:15:12 10° NE
Cosmos 1340 4.2 16:08:14 10° NNW 16:11:48 39° W 16:15:20 10° SSW
Cosmos 1733 Rocket 3.0 16:07:42 10° N 16:12:05 72° ENE 16:16:29 10° SSE
YAOGAN 6 3.8 16:09:38 10° ESE 16:12:19 20° ENE 16:15:02 10° NNE
Cosmos 1992 Rocket 3.9 16:08:07 10° NNW 16:13:23 78° ENE 16:18:37 10° SSE
IRS-1C Rocket 4.0 16:08:08 10° SSE 16:13:24 74° ENE 16:18:41 10° NNW
Meteor 1-11 Rocket 3.8 16:07:51 10° NNW 16:13:52 74° ENE 16:19:49 10° SSE
USA 229 DEB 4.3 16:07:35 10° NW 16:14:09 42° NNE 16:20:20 13° E
USA 229 4.3 16:07:42 10° NW 16:14:16 41° NNE 16:20:25 13° E
CZ-4B R/B 2.4 16:11:20 10° N 16:14:45 48° WNW 16:18:07 10° SW
USA 267 3.9 16:08:39 10° SE 16:15:06 59° SW 16:21:35 10° WNW
Cosmos 1500 3.1 16:12:16 10° N 16:16:03 69° ENE 16:19:47 10° SSE
Exosat Rocket 4.1 16:12:03 10° S 16:16:49 39° ESE 16:20:57 13° NE
Cosmos 1943 Rocket 3.2 16:13:05 10° NNW 16:17:48 26° NE 16:21:33 14° E
NOSS 3-1 (A) 4.4 16:13:05 10° WNW 16:19:16 39° N 16:25:07 15° ENE
NOSS 3-4 (A) 3.5 16:13:56 10° SW 16:20:02 87° NW 16:25:51 14° NE
NOSS 3-4 (C) 3.5 16:14:03 10° SW 16:20:09 88° NW 16:25:57 14° NE
Meteor 1-27 Rocket 4.1 16:15:41 10° SSE 16:21:10 47° E 16:26:47 10° NNE
Transit 2A Rocket 4.5 16:17:40 10° SSW 16:22:08 77° SE 16:25:38 15° NE
BREEZE-M DEB (TANK) 4.0 16:17:02 10° W 16:24:02 40° SSW 16:26:50 10° SE
Radarsat 4.5 16:19:36 10° SSE 16:24:47 73° ENE 16:30:00 10° NNW
Cosmos 1867 3.9 16:19:36 10° NW 16:24:53 45° NNE 16:29:57 11° ESE
Cosmos 1980 4.2 16:22:50 10° S 16:28:04 41° ESE 16:32:12 16° NE
ATLAS 5 CENTAUR R/B 3.0 16:28:55 10° SSE 16:29:34 11° SE 16:29:34 11° SE
Cosmos 2297 3.8 16:25:13 10° NNW 16:30:51 54° NE 16:36:25 10° SE
CSL-04 Rocket 4.2 16:28:11 10° ESE 16:32:50 33° ENE 16:37:32 10° N
RESURS DK-1 2.3 16:30:03 10° SSW 16:34:10 77° ESE 16:37:12 18° NE
Cosmos 921 Rocket 3.4 16:30:17 10° NNW 16:34:18 39° ENE 16:38:22 10° SE
Cosmos 1441 Rocket 3.7 16:31:23 10° N 16:34:59 36° ENE 16:38:30 10° SE
Cosmos 1689 Rocket 3.4 16:32:57 10° N 16:35:50 39° WNW 16:38:42 10° SW
H-2A R/B 2.6 16:33:38 10° SSE 16:37:19 87° WSW 16:41:02 10° NNW
NOSS 0 Rocket 4.1 16:31:21 10° S 16:37:23 55° ESE 16:42:17 16° NE
Cosmos 1782 Rocket 4.0 16:38:47 10° N 16:42:54 38° ENE 16:46:57 10° SE
Sich 1 Rocket 4.2 16:40:10 10° N 16:44:11 32° ENE 16:48:08 10° SE
Okean 2 Rocket 4.3 16:41:49 10° N 16:44:31 22° NE 16:44:31 22° NE
Feng Yun 1-1 Rocket 4.5 16:41:21 10° S 16:46:43 71° WSW 16:52:09 10° NNW
COSMOS 2428 2.8 16:41:56 10° SW 16:47:38 79° WNW 16:52:35 14° NNE
CSL-04 Debris 4.5 16:43:58 10° SE 16:49:04 43° ENE 16:54:10 10° N
Ariane Rocket 4.0 16:49:09 23° ENE 16:49:17 23° NE 16:53:14 10° N
Cosmos 1536 2.9 16:45:55 10° NNW 16:49:59 82° W 16:53:59 10° S
Genesis I 3.2 16:50:33 10° NW 16:54:29 82° SW 16:58:21 10° SE
Cosmos 1862 Rocket 3.5 16:50:52 10° S 16:55:14 89° W 16:59:41 10° N
ATLAS 2AS CENTAUR R/B 3.4 16:50:14 10° WSW 16:58:11 60° NNW 17:03:59 20° NE
Cosmos 1703 Rocket 4.0 16:54:10 10° SSE 16:58:23 41° E 17:00:18 27° NE
Okean O Rocket 4.3 16:56:56 10° SW 17:00:18 22° W 17:03:41 10° NW
Cosmos 1666 2.5 16:56:41 10° N 17:00:27 89° ENE 17:04:11 10° S
SeaSat 1 3.4 17:02:16 27° NE 17:02:45 27° NE 17:06:51 10° NNW
STARLINK-67 2.4 17:00:23 10° W 17:03:09 80° S 17:03:17 76° SE
Cosmos 1092 Rocket 4.0 16:58:17 10° S 17:04:29 64° E 17:10:40 10° NNE
Lacrosse 5 rocket 1.3 17:00:42 10° SW 17:04:55 67° SSE 17:06:10 41° E
Cosmos 2242 Rocket 3.5 17:02:37 10° S 17:07:12 79° E 17:11:14 13° NNE
Cosmos 2278 Rocket 3.8 17:05:45 10° NW 17:10:53 36° WSW 17:15:59 10° S
NOAA 11 4.3 17:06:25 10° SE 17:11:39 48° ENE 17:16:55 10° N
SL-4 R/B 2.1 17:08:22 10° WSW 17:12:08 62° S 17:13:11 43° ESE
Aureole 1 Rocket 3.4 17:09:35 10° S 17:11:21 28° SSE 17:11:21 28° SSE
Lacrosse 4 Rocket 3.4 17:10:13 10° NNW 17:12:01 15° N 17:12:01 15° N
CZ-4 R/B 1.1 17:09:13 10° SSE 17:13:05 66° ENE 17:16:55 10° N
FengYun 1-2 T 4.1 17:10:33 10° SSE 17:16:03 88° ENE 17:21:37 10° NNW
Okean-O 3.2 17:13:41 10° S 17:18:03 59° WSW 17:22:28 10° NNW
STARLINK-46 3.4 17:15:37 10° WSW 17:17:43 46° SW 17:17:43 46° SW
Cosmos 2360 Rocket 3.8 17:13:50 10° W 17:18:41 28° NW 17:22:51 13° NNE
USA 215 3.2 17:17:58 31° ENE 17:21:27 90° NNW 17:28:01 10° WSW
Cosmos 2344 4.2 17:15:12 10° NW 17:23:48 62° NNE 17:30:40 27° E
Cosmos 2369 Rocket 2.4 17:18:54 10° NNW 17:24:20 46° NE 17:25:27 41° E
Cosmos 1743 2.5 17:22:14 10° N 17:26:07 76° ENE 17:29:59 10° SSE
Cosmos 1908 Rocket 4.3 17:21:53 10° NNW 17:26:11 54° W 17:30:26 10° S
Cosmos 1980 Rocket 4.3 17:24:04 10° NW 17:27:01 14° N 17:29:03 12° NNE
Uosat 12 SS-18 rocket 4.2 17:23:12 10° NW 17:28:22 63° NE 17:29:08 54° E
SL-16 R/B 2.5 17:24:58 10° S 17:30:20 45° ESE 17:30:56 43° E
COSMO-SKYMED 1 2.5 17:29:39 56° NE 17:30:21 66° ESE 17:34:40 10° S
S3M 4.0 17:25:58 10° N 17:32:07 55° ENE 17:38:08 10° SSE
Cosmos 2251 Rocket 4.0 17:29:13 10° SW 17:34:27 60° WNW 17:37:46 22° NNE
Meteor 1-12 Rocket 4.5 17:29:00 10° N 17:34:43 47° ENE 17:35:21 45° E
Cosmos 614 Rocket 4.1 17:30:15 10° S 17:34:59 48° ESE 17:34:59 48° ESE
Cosmos 2333 Rocket 3.3 17:34:03 10° WSW 17:39:29 41° NW 17:43:07 20° NNE
Cosmos 2237 Rocket 2.3 17:35:08 10° SW 17:40:50 76° NW 17:43:32 33° NNE
YAOGAN 1 2.5 17:36:44 10° SSE 17:41:04 84° WSW 17:45:26 10° NNW
Envisat 4.2 17:40:03 10° S 17:44:53 43° W 17:49:45 10° NNW
Cosmos 1553 Rocket 3.9 17:38:51 10° N 17:45:14 82° E 17:51:40 10° SSE
YAOGAN 6 3.7 17:42:10 10° S 17:45:35 43° W 17:49:03 10° NNW
Cosmos 1428 Rocket 4.3 17:39:31 10° S 17:45:42 78° E 17:51:59 10° NNE
Okean 1-7 3.0 17:41:40 10° SSW 17:46:01 86° WNW 17:46:42 63° N
Cosmos 2322 Rocket 4.2 17:42:39 10° WNW 17:46:19 17° NNW 17:48:55 13° N
H-2A R/B 4.1 17:53:52 13° N 17:53:52 13° N 17:54:32 10° N
Cosmos 1140 Rocket 4.4 17:47:28 10° S 17:50:28 32° SSE 17:50:28 32° SSE
Cosmos 2219 Rocket 3.5 17:48:49 10° WSW 17:53:56 35° NW 17:57:01 21° N
COSMOS 2455 4.4 17:50:03 10° WNW 17:54:53 24° NNW 17:56:37 21° NNE
SL-16 R/B 4.3 17:51:29 10° NW 17:54:55 16° NNW 17:57:01 13° N
Cosmos 407 Rocket 3.4 17:50:17 10° SSW 17:55:06 65° SE 17:55:06 65° SE
NOSS 3-1 (C) 3.9 17:50:15 10° NW 17:57:21 72° NE 17:59:48 47° ESE
IRS-1A Rocket 4.2 18:01:26 63° ESE 18:02:09 70° ENE 18:08:04 10° NNW
Cosmos 1943 Rocket 2.0 17:56:40 10° NNW 18:02:23 85° ENE 18:03:07 68° SE
Cosmos 2026 Rocket 4.0 17:57:56 10° SSW 18:03:59 74° WNW 18:10:06 10° N
USA 229 DEB 3.7 17:58:56 10° NW 18:06:05 78° NE 18:07:49 56° ESE
USA 229 3.7 17:59:03 10° NW 18:06:12 77° NE 18:07:53 56° ESE
Cosmos 1867 4.1 18:03:20 10° NW 18:08:41 56° SW 18:10:41 36° S
BREEZE-M R/B 4.4 18:05:59 10° W 18:09:04 29° SW 18:09:04 29° SW
NOSS 3-1 (A) 3.9 18:04:21 10° NW 18:11:23 66° NE 18:12:35 58° ENE
NOSS 3-4 (A) 4.4 18:05:48 10° W 18:11:41 41° NNW 18:13:17 36° NNE
NOSS 3-4 (C) 4.4 18:05:54 10° W 18:11:47 41° NNW 18:13:24 36° NNE
Cosmos 1980 4.4 18:06:39 10° WSW 18:12:07 49° NW 18:14:03 35° N
RESURS DK-1 4.3 18:09:24 10° W 18:12:42 22° NW 18:13:07 22° NNW
CSL-04 Rocket 4.3 18:07:51 10° S 18:12:59 52° W 18:18:11 10° NNW
SKYMED 2 4.4 18:18:20 47° WNW 18:18:27 47° WNW 18:22:37 10° SW
Cosmos 2263 4.4 18:15:24 10° NNW 18:20:21 64° N 18:20:21 64° N
Ariane Rocket 3.8 18:29:22 44° NNW 18:29:22 44° NNW 18:32:53 10° NNW
COSMOS 2428 4.4 18:28:10 10° W 18:32:49 25° NNW 18:34:36 21° N
Cosmos 1655 Rocket 4.0 18:31:02 10° SSW 18:37:01 79° SW 18:37:01 79° SW
SeaSat 1 3.7 18:42:03 34° NW 18:42:03 34° NW 18:44:50 10° NNW
Lacrosse 5 rocket 3.6 18:40:09 10° W 18:41:49 22° W 18:41:49 22° W
CZ-4 R/B 4.3 18:46:14 10° SW 18:48:33 15° W 18:50:51 10° NW
ATLAS 2AS CENTAUR R/B 3.7 18:43:08 10° WNW 18:50:39 41° N 18:51:24 40° N
USA 215 3.6 19:05:19 60° NW 19:05:19 60° NW 19:10:52 10° W
Cosmos 2360 Rocket 4.5 19:01:41 10° NW 19:04:37 14° NNW 19:04:37 14° NNW
Cosmos 2369 Rocket 3.4 19:03:06 10° NW 19:07:17 38° W 19:07:17 38° W
SL-16 R/B 3.5 19:09:03 10° WSW 19:12:51 36° W 19:12:51 36° W
Cosmos 2333 Rocket 4.4 19:21:35 10° WNW 19:25:07 17° NNW 19:25:07 17° NNW
Cosmos 2237 Rocket 4.1 19:21:16 10° W 19:25:23 24° NW 19:25:23 24° NW
Cosmos 1943 Rocket 4.4 19:41:22 10° NW 19:44:42 20° W 19:44:42 20° W
